User: anonymous   Login
Location: Chervonnoye
(48.6000°N, 34.4000°E)
Time: 17:20:16
(UTC+00:00)
Language:

PEGASUS DEB - Orbit

View from above orbital plane
View from above orbital plane
View from above satellite
View from above satellite

Ground track
Ground track

The orbit data is extracted from the following two-line orbital elements,

1 39921U 94029AFU 21171.59732375  .00000465  00000-0  13894-3 0  9994
2 39921  81.5414 126.2871 0418256 119.2470 245.1194 14.00355016359734
Epoch (UTC): 20 June 2021 14:20:08
Eccentricity: 0.0418256
inclination: 81.5414°
perigee height: 588 km
apogee height: 1196 km
right ascension of ascending node: 126.2871°
argument of perigee: 119.2470°
revolutions per day: 14.00355016
mean anomaly at epoch: 245.1194°
orbit number at epoch: 35973

The dashed part of the orbit path shows where the satellite is in the earth's shadow,  

DLR